Preview of NWS' New Version of Forecast
This preview is not operational and should not be used for support decisions.

Regional Weather Roundup (RWR)

Issued by Gray - Portland, ME (GYX)

                            
000
ASUS41 KGYX 180510
RWRGYX
WEATHER ROUNDUP FOR MAINE AND NEW HAMPSHIRE
NATIONAL WEATHER SERVICE GRAY ME
100 AM EDT THU APR 18 2019

MEZ002-005-006-010-012-015-018-020-021-024-026-027-029-180600-
MAINE
  
CITY           SKY/WX    TMP DP  RH WIND       PRES   REMARKS
PORTLAND       FAIR      37  28  70 CALM      30.25S                  
SANFORD        FAIR      28  26  92 CALM      30.25S                  
WISCASSET      FAIR      30  27  88 CALM      30.26R                  
ROCKLAND       FAIR      32  29  88 SW5       30.25R                  
FRYEBURG       FAIR      26  22  84 CALM      30.24S                  
LEWISTONAUBURN FAIR      31  25  78 CALM      30.24S                  
AUGUSTA        FAIR      39  25  57 CALM      30.24S                  
WATERVILLE     FAIR      34  20  56 CALM      30.21S                  
BANGOR         FAIR      32  22  66 CALM      30.24R                  
GREENVILLE       N/A     34  17  50 NE3       30.19R                  
MILLINOCKET    FAIR      29  22  75 W3        30.25R                  
HOULTON        FAIR      25  23  92 CALM      30.22R                  
PRESQUE ISLE   FAIR      23  21  92 CALM      30.23R                  
FRENCHVILLE    FAIR      39  13  34 CALM      30.19R                  
CARIBOU        FAIR      29  20  69 CALM      30.20R                  
$$

NHZ002-005-008-009-011-012-014-180600-
NEW HAMPSHIRE
  
CITY           SKY/WX    TMP DP  RH WIND       PRES   REMARKS
ROCHESTER      FAIR      36  30  79 CALM      30.24S                  
NASHUA         FAIR      40  33  76 CALM      30.24S                  
MANCHESTER     FAIR      45  28  51 SE6       30.22S                  
CONCORD        FAIR      37  27  67 CALM      30.23R                  
LACONIA        FAIR      33  28  81 CALM      30.23S                  
PLYMOUTH       FAIR      29  27  90 CALM      30.24R                  
BERLIN         FAIR      25  23  92 CALM      30.21S                  
WHITEFIELD     FAIR      28  23  81 CALM      30.19F                  
JAFFREY        FAIR      39  31  72 CALM      30.21S                  
KEENE          FAIR      35  30  82 CALM      30.22R                  
LEBANON        FAIR      32  24  72 S5        30.19S                  
MT WASHINGTON  PTCLDY    21  12  68 S15         N/A  WCI   8          
$$

VTZ005-007-008-180600-
VERMONT
  
CITY           SKY/WX    TMP DP  RH WIND       PRES   REMARKS
ST JOHNSBURY     N/A     30  26  85 MISG      30.19S                  
MONTPELIER     FAIR      31  22  69 CALM      30.20F                  
$$

MAZ007-012-024-CTZ003-RIZ002-NYZ038-NYZ072-180600-
SOUTHERN NEW ENGLAND AND NY
  
CITY           SKY/WX    TMP DP  RH WIND       PRES   REMARKS
BOSTON         FAIR      47  31  53 SW8       30.26S                  
WORCESTER      FAIR      40  28  62 SW12      30.23S                  
NANTUCKET      FAIR      41  37  86 S7        30.29S                  
PROVIDENCE     FAIR      44  35  70 S3        30.27S                  
HARTFORD       FAIR      45  29  53 S7        30.24S                  
ALBANY         MOCLDY    50  26  39 S10       30.15F                  
NEW YORK CITY  CLOUDY    52  32  46 SE7       30.21S                  
$$

ANZ081-ANZ082-ANZ150-NHZ014-MEZ023>029-180600-
COASTAL MARINE OBSERVATIONS
  
STATION/POSITION TIME  TEMP    WIND        PRES    WAVE
                       AIR SEA DIR/SP/G            HT/PER
                 (UTC) (F)     (DEG/KT/KT) (MB)    (FT/S)
ISLE OF SHOALS   0400   43     160/ 15/ 15 1023.9R
$$

.............KEY..............
   WCI - WIND CHILL
   TC  - TEMPERATURE IN CELSIUS
   VSB - VISIBILITY IN MILES
   HX  - HEAT INDEX
   FAIR- INDICATES FEW OR NO CLOUDS BELOW 12,000 FT, WITH NO 
         SIGNIFICANT WEATHER AND/OR OBSTRUCTIONS TO VISIBILITY.